Location: Woodstock
(43.1330°N, 80.7500°W)
Time: 20:12:39
(UTC-04:00)

Daily predictions for brighter satellites

Satellite Brightness Start Highest point End
(mag) Time Altitude Azimuth Time Altitude Azimuth Time Altitude Azimuth
Cosmos 2227 Rocket 2.2 20:22:11 10° NNW 20:27:53 76° ENE 20:33:31 10° SSE
Resurs 01 Rocket 2.0 20:26:10 10° S 20:30:35 70° WSW 20:35:02 10° NNW
FengYun 1-2 T 4.3 20:26:50 10° SSE 20:32:28 83° ENE 20:38:06 10° NNW
OAO 2 Rocket 4.3 20:34:57 10° SW 20:39:20 31° S 20:43:48 10° ESE
Meteor 1-29 3.6 20:36:55 10° N 20:40:20 61° WNW 20:43:46 10° SSW
Cosmos 2297 Rocket 2.2 20:37:18 10° NNW 20:42:58 72° ENE 20:48:37 10° SSE
Cosmos 2082 3.8 20:38:06 10° NNW 20:43:46 87° WSW 20:49:23 10° SSE
Meteor 1-5 Rocket 4.3 20:42:19 10° SSW 20:47:40 81° W 20:53:12 10° N
ALOS 2.3 20:44:22 10° SSE 20:49:02 83° ENE 20:53:44 10° N
Cosmos 1346 Rocket 3.3 20:45:55 10° NNW 20:49:51 65° W 20:53:48 10° S
Cosmos 1939 Rocket 4.3 20:49:04 11° ESE 20:52:07 23° ENE 20:55:25 10° NNE
USA 186 1.5 20:52:58 10° SSE 20:56:00 68° ENE 20:58:50 10° N
OTV 4 2.9 20:54:45 10° SW 20:56:21 14° SSW 20:57:57 10° SSE
Cosmos 1515 4.0 20:54:54 10° N 20:58:39 48° ENE 21:02:21 10° SSE
Cosmos 1461 4.3 20:58:52 10° NW 21:02:32 34° WSW 21:06:06 10° S
SL-24 R/B - RUBIN 2 4.3 20:58:29 10° SSW 21:04:20 73° ESE 21:10:50 10° NE
Cosmos 2173 Rocket 4.5 21:01:48 10° SSE 21:07:37 40° E 21:13:25 10° NNE
Cosmos 1605 Rocket 4.2 21:06:45 10° SSW 21:13:05 77° W 21:19:22 10° N
Cosmos 1743 3.5 21:13:07 16° SE 21:15:34 32° E 21:19:05 10° NNE
RESURS DK-1 2.5 21:13:04 10° NNW 21:17:10 55° ENE 21:19:38 22° SE
Tiangong 1 1.0 21:14:22 10° W 21:17:28 68° S 21:18:49 30° ESE
BREEZE-M DEB (TANK) 4.3 20:59:56 10° SW 21:17:50 61° SSE 21:22:27 12° ENE
Cosmos 1697 Rocket 2.6 21:13:45 10° S 21:19:20 65° ESE 21:24:56 10° NNE
Cosmos 1066 Rocket 4.2 21:14:20 10° N 21:20:02 70° E 21:25:46 10° SSE
H-2A R/B 2.9 21:20:46 23° ESE 21:22:21 30° ENE 21:26:01 10° N
Cosmos 2100 Rocket 4.1 21:16:41 10° SSE 21:22:48 56° E 21:28:51 10° NNE
Iridium 4 Rocket 3.3 21:18:09 10° N 21:23:14 88° W 21:27:48 10° S
Cosmos 1626 Rocket 4.1 21:20:16 10° NNW 21:24:37 60° W 21:28:53 10° S
BREEZE-M DEB (TANK) 4.5 21:21:44 10° WSW 21:26:08 87° SSE 21:43:34 10° ENE
Envisat 3.2 21:23:26 19° SE 21:26:54 53° ENE 21:31:51 10° N
Cosmos 2298 Rocket 4.1 21:21:35 10° NNW 21:26:55 78° WSW 21:31:50 12° SSE
YAOGAN 11 4.1 21:24:13 15° SSE 21:27:59 78° ENE 21:32:27 10° N
Cosmos 1937 Rocket 3.5 21:23:04 10° NNW 21:28:22 73° ENE 21:32:04 20° SSE
SL-16 R/B 3.8 21:31:23 16° E 21:31:23 16° E 21:33:35 10° ENE
Cosmos 2084 3.8 21:26:22 10° NW 21:30:22 56° WSW 21:33:08 20° SSE
Cosmos 2061 Rocket 4.0 21:26:46 10° S 21:32:57 61° E 21:39:06 10° NNE
ARGOS 4.4 21:34:52 21° E 21:36:33 25° ENE 21:40:51 10° N
Cosmos 1758 Rocket 4.2 21:32:52 10° N 21:36:54 36° ENE 21:37:54 32° ESE
Cosmos 990 Rocket 4.0 21:33:59 10° NNW 21:39:14 67° ENE 21:42:00 28° SE
Lacrosse 5 1.9 21:37:19 10° NW 21:42:23 73° SW 21:44:53 30° SSE
Cosmos 1980 Rocket 2.2 21:37:17 10° S 21:42:50 62° ESE 21:48:28 10° NNE
deb Chang Zheng 4 3.9 21:38:41 10° NNE 21:42:58 44° E 21:44:26 33° SSE
Cosmos 1842 4.0 21:42:23 10° N 21:45:59 34° ENE 21:46:02 34° ENE
H-2A R/B 3.7 21:46:51 15° ENE 21:47:21 15° ENE 21:50:11 10° NNE
MetOp-B 4.5 21:46:49 32° ESE 21:48:52 48° ENE 21:54:00 10° N
SPOT 5 3.0 21:49:22 35° SE 21:51:11 55° ENE 21:55:52 10° N
Cosmos 1459 Rocket 3.9 21:45:53 10° S 21:51:57 88° E 21:58:06 10° N
ERS-1 Rocket 3.2 21:48:21 17° S 21:52:11 70° WSW 21:57:14 10° NNW
Cosmos 1725 Rocket 4.3 21:53:16 31° SE 21:55:42 45° E 22:01:36 10° NNE
Lacrosse 5 rocket 3.7 21:54:21 10° W 21:55:57 12° WSW 21:57:32 10° SSW
BREEZE-M TANK 3.0 21:47:16 10° WNW 21:56:55 65° SSW 21:58:04 43° SE
Cosmos 1666 3.2 22:00:57 42° ENE 22:00:57 42° ENE 22:03:55 10° NNE
Cosmos 2058 Rocket 3.2 22:03:45 53° ESE 22:04:10 55° E 22:08:35 10° NNE
Cosmos 2098 Rocket 4.0 22:00:54 24° SSE 22:05:01 61° E 22:10:37 10° NNE
Cosmos 1763 Rocket 3.3 22:00:14 10° SSW 22:05:20 81° ESE 22:10:26 10° NNE
SPOT 1/Viking Rocket 3.9 22:05:16 41° E 22:06:14 46° ENE 22:11:12 10° N
Cosmos 2263 Rocket 3.3 22:03:21 10° N 22:08:07 28° NE 22:09:09 27° ENE
Cosmos 1606 Rocket 3.5 22:06:33 31° SSW 22:08:39 84° W 22:13:08 10° N
Cosmos 1125 Rocket 3.6 22:09:48 10° NNW 22:14:57 56° ENE 22:15:42 51° E
Meteor 1-15 Rocket 4.3 22:13:43 43° SSE 22:15:25 60° E 22:21:11 10° NNE
Terra 3.4 22:15:54 21° ENE 22:15:54 21° ENE 22:19:02 10° NNE
YAOGAN 6 2.7 22:16:13 67° NNE 22:16:13 67° NNE 22:19:33 10° N
Cosmos 2322 Rocket 2.5 22:16:55 43° E 22:16:55 43° E 22:21:40 10° NE
Cosmos 2233 Rocket 4.3 22:19:10 42° E 22:19:34 43° E 22:25:24 10° NNE
Cosmos 1340 3.5 22:16:01 10° NNW 22:19:41 46° W 22:20:21 41° SW
USA 215 4.0 22:18:44 27° E 22:21:53 45° NNE 22:28:02 10° NW
BREEZE-M DEB (TANK) 4.3 21:59:58 10° WNW 22:23:03 74° NNE 22:25:51 38° E
Meteor 2-9 Rocket 4.0 22:26:59 46° S 22:28:43 86° E 22:34:08 10° N
Cosmos 841 Rocket 3.6 22:23:35 10° SSW 22:28:49 72° WNW 22:34:02 10° NNE
SL-08 R/B 4.5 22:25:28 23° SSW 22:29:31 81° W 22:35:43 10° N
Cosmos 2360 4.3 22:24:55 10° SSW 22:30:38 79° WNW 22:36:24 10° NNE
Cosmos 1726 Rocket 4.1 22:30:18 37° SW 22:31:45 55° W 22:36:06 10° N
MetOp-A 4.3 22:33:48 46° SSW 22:35:17 66° WSW 22:40:38 10° NNW
Cosmos 405 Rocket 4.2 22:36:37 10° N 22:38:40 29° N 22:38:40 29° N
Cosmos 540 Rocket 4.2 22:42:33 39° NE 22:42:33 39° NE 22:45:58 10° NNE
ASTEX 1 4.0 22:39:03 10° N 22:43:56 54° W 22:45:35 37° SW
Cosmos 1375 Rocket 4.4 22:50:12 40° SSW 22:52:49 82° ESE 22:59:28 10° NE
BREEZE-M DEB (TANK) 4.0 22:52:16 10° WNW 22:53:28 26° W 22:53:28 26° W
Cosmos 372 Rocket 4.0 22:50:05 10° NNW 22:54:42 70° NNE 22:54:42 70° NNE
H-2A R/B 3.9 22:57:54 22° WSW 22:58:24 23° W 23:01:43 10° NW
SL-08 RB Rocket 4.3 23:05:54 55° NW 23:05:54 55° NW 23:09:45 10° NNW
Cosmos 2228 4.2 23:07:20 40° NW 23:07:20 40° NW 23:10:49 10° N
SL-16 R/B 2.4 23:13:10 68° W 23:13:26 69° WNW 23:19:07 10° NNE
ARGOS 3.8 23:16:23 47° WSW 23:16:29 47° W 23:21:41 10° NNW
Cosmos 1844 Rocket 4.2 23:15:30 10° N 23:19:29 24° NE 23:19:29 24° NE
CZ-4B R/B 4.2 23:16:04 10° N 23:20:03 49° NW 23:20:03 49° NW
Lacrosse 5 4.4 23:22:50 10° W 23:24:05 11° WSW 23:24:05 11° WSW
H-2A R/B 2.8 23:27:30 48° NW 23:27:30 48° NW 23:31:10 10° NNW
Cosmos 2360 Rocket 3.6 23:30:08 28° NE 23:30:08 28° NE 23:32:48 10° NNE
Cosmos 1980 Rocket 4.4 23:22:50 10° WSW 23:27:18 23° NW 23:31:48 10° N
Cosmos 2263 Rocket 3.3 23:46:57 10° NW 23:50:51 38° WNW 23:50:51 38° WNW
Terra 3.5 23:54:47 30° NW 23:54:47 30° NW 23:57:29 10° NNW
